Weather in Kashpir

Russia / Samara Oblast     53°00′10″N   48°34′04″E
temp.,
°C
wind,
m/s
gust,
m/s
humid.,
%
clouds,
%
prec.,
mm/h
press.,
hPa
HPBL,
m
27 february, sat
sat2701:00−2s4897100 1.9 1000223
04:00+2w5139396 1.9 1000496
07:00+1wsw5118997 0.1 999424
10:00+1wsw5119794 0.1 999531
13:00+1wsw510100100 0.1 998525
16:00+1wsw51097100 0.1 998487
19:000wsw4997100 0.3 998438
22:00−6nnw9149099 0.3 1000417
28 february, sun
sun2801:00−10nnw81392100 0.4 1002511
04:00−13nw7148995 0.4 1005442
07:00−15nw7129098 0.0 1007397
10:00−15nw6119084 0.0 1008371
13:00−12nnw698872 0.0 1010498
16:00−11nnw6108678 0.0 1012544
19:00−15nw499018 0.0 1014179
22:00−18nw34939 0.0 101653
1 march, mon
mon101:00−19nw33950 0.0 101835
04:00−20nw33950 0.0 101936
07:00−21nw33940 0.0 102132
10:00−18nw24910 0.0 1023225
13:00−14nnw348562 0.0 1023422
16:00−12nnw248682 0.0 1024460
19:00−17nw229256 0.0 102420
22:00−18wsw119228 0.0 102420
2 march, tue
tue201:00−18wsw22950 0.0 102321
04:00−17sw33920 0.0 102130
07:00−16ssw489469 0.0 1018152
10:00−11ssw6119485 0.1 1014334
13:00−6sw71393100 0.9 1010580
16:00−2sw81294100 1.7 1006766
19:00−1sw61295100 0.9 1003604
22:00−1wsw51093100 1.2 1002312
3 march, wed
wed301:00−2wnw51093100 0.0 1001239
04:00−4wnw5109196 0.0 1002233
07:00−2nw6129295 0.4 1002650
10:00−3nw6128996 0.4 1004634
13:00−1nnw698660 0.1 10061019
16:00−1nnw698580 0.2 1007924
19:00−5nw4118994 0.0 1008292
22:00−4nw6129197 0.2 1011568